THOR 7

Last updated on Tue Nov 19 2024 00:02:42 GMT+0000 (Coordinated Universal Time)

1 40613U 15022A 24323.61877757 -.00000005 00000+0 00000+0 0 9990 2 40613 0.0533 107.7550 0002667 124.9997 47.5038 1.00271521 35042
UTC large
Height (km)
Speed (km/s)
/
Latitude / Longitude
Inclination (degrees)
Orbital Period (minutes)
Azimuth
Elevation
Range (km)
Doppler Factor

Next 0 passes for location: London (51.5072 / 0.1276)

Sorry there are no passes over London.